Temperature
10 10 10 10 10 10 11 11 10 9 9 9 9 9 9 8 8 8 8 7 7 7 6 6 5 5 4 4 3 3 3 2 2 1 1 0 -0 -0
10 10 10 10 10 10 10 10 10 10 10 9 9 9 9 8 8 8 8 7 7 6 6 5 5 4 4 3 3 2 2 1 1 0 -0 -1 -1 -1
9 9 10 10 10 10 10 10 10 10 10 9 9 9 8 8 8 8 7 7 6 6 6 5 5 4 3 3 2 2 1 1 0 -0 -1 -1 -1 -2
9 9 10 10 10 10 10 10 10 10 10 9 9 9 8 8 8 7 7 6 6 6 5 5 4 3 3 2 2 1 1 0 -0 -1 -1 -2 -2 -2
10 9 10 10 10 10 10 9 9 9 9 9 9 8 8 8 7 7 6 6 6 5 5 4 4 3 2 2 1 1 0 -0 -1 -2 -2 -2 -2 -3
9 9 10 10 10 10 9 9 9 9 9 9 8 8 7 7 7 6 6 6 5 5 4 4 3 3 2 2 1 0 -0 -1 -2 -2 -2 -3 -3 -3
9 9 10 10 10 10 9 9 9 9 9 8 8 8 7 7 7 6 6 5 5 4 4 3 3 2 2 1 0 -0 -1 -2 -2 -2 -3 -3 -3 -4
9 9 9 9 9 9 9 9 9 9 9 8 8 8 7 7 6 6 5 5 4 4 3 3 2 2 1 1 -0 -1 -1 -2 -2 -3 -3 -3 -4 -4
9 9 9 9 9 9 9 9 9 9 8 8 8 8 7 7 6 5 5 4 4 3 3 3 2 2 1 0 -1 -1 -2 -2 -3 -3 -3 -4 -4 -4
9 9 9 9 9 9 9 8 8 8 8 8 7 7 7 6 5 5 4 4 3 3 2 2 2 1 1 -0 -1 -2 -2 -3 -3 -3 -4 -4 -4 -5
9 9 9 9 9 9 9 8 8 8 7 7 7 6 6 5 5 4 4 3 3 3 2 1 1 1 0 -0 -1 -2 -2 -3 -3 -4 -4 -4 -5 -5
8 9 9 9 9 9 8 8 8 8 7 6 6 6 5 5 4 4 3 3 2 2 1 1 0 -1 -1 -1 -1 -2 -3 -3 -4 -4 -4 -5 -5 -5
8 8 8 8 8 8 8 8 8 7 7 6 6 5 5 4 4 3 3 2 2 1 1 0 -0 -1 -2 -2 -2 -2 -3 -4 -4 -4 -5 -5 -5 -6
8 8 8 8 8 8 8 7 7 7 6 6 5 5 4 4 3 3 2 2 1 1 0 -0 -1 -1 -2 -3 -3 -3 -3 -4 -4 -5 -5 -5 -5 -6
8 8 8 8 7 7 7 7 6 6 6 5 5 4 4 3 3 2 2 1 1 0 -0 -1 -1 -2 -2 -3 -4 -4 -4 -4 -5 -5 -5 -5 -6 -6
7 7 7 7 7 6 6 6 5 5 5 5 4 4 3 3 2 2 2 1 1 0 -1 -1 -2 -2 -3 -3 -4 -4 -5 -5 -5 -5 -5 -6 -6 -6
7 7 6 6 6 5 5 5 5 5 4 4 4 3 3 2 2 2 1 1 0 -0 -1 -1 -2 -2 -3 -3 -4 -4 -5 -5 -6 -6 -6 -5 -6 -6
7 6 6 6 5 5 5 5 5 4 4 4 3 3 3 2 2 1 1 0 -0 -1 -1 -2 -2 -2 -3 -4 -4 -5 -5 -6 -6 -6 -6 -6 -6 -6
6 6 6 5 5 5 5 5 4 4 4 3 3 3 2 2 1 1 0 -0 -1 -1 -2 -2 -3 -4 -4 -4 -4 -5 -6 -6 -6 -6 -6 -6 -6 -6
6 6 6 5 5 5 5 4 4 4 3 3 3 2 2 1 1 1 -0 -1 -1 -2 -2 -3 -3 -4 -5 -5 -5 -5 -6 -6 -6 -6 -6 -6 -6 -6
6 6 6 5 5 5 5 4 4 3 3 3 2 2 2 1 1 0 -0 -1 -2 -2 -2 -3 -4 -5 -5 -5 -6 -5 -5 -6 -6 -6 -6 -6 -6 -6
5 5 5 5 5 4 4 4 3 3 3 2 2 2 1 1 0 -0 -1 -1 -2 -2 -3 -4 -4 -5 -5 -5 -6 -6 -6 -6 -6 -6 -6 -7 -7 -7
5 5 5 5 4 4 4 3 3 3 2 2 2 1 1 0 -0 -1 -1 -2 -2 -3 -3 -4 -4 -5 -5 -5 -6 -6 -6 -6 -6 -6 -6 -6 -7 -7
Wind_Speed
13 11 9 7 6 6 6 7 7 5 5 4 3 3 6 7 8 7 6 5 5 4 3 3 3 4 5 7 8 9 10 12 13 14 16 17 18 19
10 12 10 7 7 6 6 5 5 5 5 4 3 2 4 5 7 7 6 5 4 4 3 3 3 4 5 6 7 9 10 11 13 14 15 16 17 18
12 12 11 9 8 7 7 6 5 4 4 2 2 2 3 4 4 5 5 4 3 3 2 2 3 4 5 6 7 8 9 11 12 14 15 16 17 18
15 13 12 10 10 9 8 7 6 5 5 5 2 2 3 4 4 3 3 3 2 3 2 2 3 4 4 5 6 7 8 10 11 13 14 15 17 18
15 14 13 13 12 8 8 8 6 5 4 5 4 2 2 2 3 2 2 1 0 1 1 2 3 3 4 5 5 6 7 9 11 12 14 15 16 17
13 13 13 14 13 12 9 9 7 6 5 5 4 3 2 2 3 2 1 0 1 1 1 2 1 3 4 5 5 6 7 9 11 12 13 14 15 16
12 12 12 13 14 13 10 10 10 7 6 5 4 3 3 3 3 3 2 1 1 1 1 1 1 2 3 5 5 6 7 9 11 13 14 14 15 16
13 12 11 12 14 15 15 14 13 11 9 7 5 5 5 4 3 3 3 2 1 1 0 1 1 1 2 3 4 6 8 9 11 12 13 14 14 15
14 13 10 10 12 11 12 12 11 11 12 9 8 7 6 6 6 4 3 2 2 1 1 1 1 2 2 3 5 6 8 9 11 12 13 14 14 15
14 14 13 12 12 13 12 10 7 6 7 6 7 7 6 7 7 6 5 3 2 1 1 0 1 2 3 4 4 6 8 9 11 12 13 14 14 14
13 13 14 13 17 18 14 12 9 6 7 10 10 9 10 11 10 7 5 3 1 1 0 1 1 2 2 2 4 6 8 9 11 13 13 15 15 14
10 12 15 16 19 20 15 14 12 9 9 9 9 9 8 9 9 6 6 4 2 2 1 1 0 1 2 2 3 5 6 9 12 13 14 15 15 11
11 10 10 18 20 20 16 12 14 13 10 10 8 6 6 5 4 4 3 3 3 2 2 2 1 0 0 2 3 3 4 5 7 9 13 15 16 12
11 10 11 19 19 18 14 15 19 16 9 8 7 6 5 4 3 4 5 5 4 3 4 3 2 2 1 2 3 3 4 5 5 6 9 14 14 14
10 14 17 20 18 14 16 20 17 11 9 8 7 5 4 5 5 5 6 7 7 6 4 2 2 1 1 2 3 3 4 4 4 5 7 8 7 8
11 15 19 18 14 14 15 13 8 8 8 8 7 6 5 5 4 4 3 3 3 3 4 4 2 1 1 2 3 4 3 4 5 6 7 7 8 7
13 10 9 10 9 8 8 8 8 8 7 7 8 7 6 5 4 3 3 2 2 1 1 3 4 2 1 2 2 3 3 4 5 6 7 8 7 7
15 11 11 10 10 10 10 9 7 8 8 8 8 7 7 6 5 3 3 2 2 1 0 1 2 3 3 2 3 3 3 4 5 6 5 6 8 7
11 11 11 11 10 10 9 9 7 7 8 8 8 8 7 6 6 5 4 3 2 1 1 0 1 1 2 3 4 2 2 5 6 6 5 5 7 9
9 11 11 10 10 10 9 9 9 8 8 8 8 7 7 7 6 5 4 4 3 1 1 1 1 0 0 2 2 4 6 5 5 6 6 6 6 10
9 10 10 10 10 10 9 9 10 9 9 8 8 8 7 7 6 5 4 5 3 2 1 1 2 2 1 1 2 4 5 8 8 6 6 6 5 4
10 10 10 10 10 10 10 10 9 9 9 8 7 7 7 6 7 6 5 5 3 2 1 0 1 2 1 1 3 5 6 8 10 10 7 5 3 3
10 10 10 11 10 10 10 10 11 9 9 8 8 7 7 6 6 5 5 4 4 3 2 0 2 2 1 1 2 4 6 7 6 7 6 9 9 10
Wind_Direction
185 181 179 178 173 164 156 156 155 173 209 208 191 188 178 173 175 174 180 194 199 210 224 251 283 303 312 320 323 326 330 330 330 329 329 331 332 333
184 182 183 178 174 167 165 164 157 161 189 196 188 162 165 166 171 167 178 190 200 214 229 251 277 301 311 318 322 325 328 328 329 331 332 333 334 334
186 186 186 176 174 172 169 167 164 152 168 165 138 138 149 155 146 154 169 180 198 213 230 254 284 297 306 315 322 326 329 331 332 333 335 334 334 333
187 186 185 179 176 174 174 174 172 160 158 164 150 141 145 157 148 145 146 166 190 208 223 265 287 300 311 320 326 329 332 334 335 335 334 334 334 333
186 186 184 179 180 175 173 174 171 158 143 148 150 133 122 130 129 122 119 101 157 220 244 280 296 309 318 325 327 330 334 335 334 334 334 334 334 334
185 186 183 184 183 176 176 174 164 154 142 139 137 134 125 120 131 147 149 89 351 14 341 315 322 351 344 336 330 331 333 334 334 334 334 335 335 335
182 185 184 181 180 177 176 174 167 162 155 149 146 140 150 155 178 165 164 138 347 19 341 326 355 7 347 335 329 332 335 336 337 338 338 338 338 337
182 181 180 177 175 172 168 167 166 166 169 166 167 172 181 176 153 149 142 141 238 284 2 297 4 318 324 320 331 341 341 343 343 342 340 340 339 337
181 178 177 177 169 168 159 152 156 159 163 167 170 182 175 175 159 153 161 161 187 204 95 273 327 300 306 318 336 347 350 349 346 344 341 340 339 338
180 177 174 172 171 161 152 148 145 145 153 153 164 169 160 157 160 157 149 121 94 40 81 209 303 297 314 319 331 352 352 349 347 345 344 341 339 339
178 174 172 173 167 156 153 150 141 129 118 122 121 124 129 136 134 122 126 120 141 217 79 133 291 315 315 311 327 345 349 347 347 345 343 342 340 341
171 172 172 170 165 160 161 158 157 151 136 120 109 105 106 121 130 136 152 145 143 196 202 131 110 4 328 311 322 337 344 343 345 345 344 343 341 343
171 172 173 164 162 163 162 164 159 147 140 132 125 116 107 102 96 94 109 139 152 188 183 138 143 107 246 303 313 321 333 329 333 336 340 340 340 340
172 169 165 159 159 159 158 149 142 137 137 135 135 135 132 123 107 91 85 79 92 145 165 146 155 174 200 296 292 311 319 319 327 328 331 333 335 335
160 155 152 153 152 153 148 143 142 143 145 147 150 150 143 135 120 101 84 79 71 69 77 91 141 175 194 235 275 298 315 314 325 326 324 323 318 321
144 142 140 139 139 140 142 142 144 150 150 150 144 136 129 130 127 122 113 98 75 43 32 41 60 153 227 258 260 280 289 296 315 321 318 311 311 312
141 135 135 141 142 140 139 141 142 142 138 134 137 137 137 135 131 125 119 105 101 116 356 0 14 9 254 235 261 273 287 294 299 315 321 317 307 309
141 146 149 151 154 154 153 150 149 150 147 143 144 146 148 147 140 131 119 113 119 123 110 339 359 8 9 340 242 262 289 292 304 311 310 311 309 313
146 153 156 158 157 157 156 155 153 150 146 147 149 150 149 147 146 146 140 123 118 114 97 6 7 35 14 330 310 282 276 302 311 311 303 295 297 304
155 157 158 159 157 157 156 152 146 145 146 148 149 149 148 149 151 153 152 144 139 124 81 13 355 342 239 253 276 293 299 294 304 308 306 300 289 296
157 156 155 156 156 155 154 151 150 150 151 151 150 150 150 150 151 150 147 144 133 137 149 272 287 327 348 14 321 306 301 310 306 295 299 308 313 319
156 155 153 153 153 152 151 150 148 148 149 149 150 150 150 152 151 148 147 149 150 144 141 289 323 352 23 9 313 306 310 317 325 324 312 293 303 320
156 155 153 153 152 151 152 151 150 151 152 150 149 149 148 146 142 141 141 139 138 133 123 70 350 4 354 315 307 309 311 319 326 335 331 336 324 306
Height
1450 1456 1461 1466 1471 1475 1478 1481 1484 1487 1490 1492 1494 1495 1497 1498 1499 1499 1499 1499 1498 1496 1495 1493 1492 1490 1487 1485 1483 1480 1477 1474 1471 1468 1464 1461 1457 1454
1446 1452 1457 1462 1467 1471 1474 1478 1481 1483 1485 1488 1490 1491 1493 1494 1495 1495 1495 1495 1494 1493 1491 1489 1488 1486 1484 1481 1479 1476 1473 1470 1467 1464 1460 1457 1454 1450
1442 1447 1452 1457 1462 1466 1470 1473 1477 1480 1481 1484 1486 1488 1489 1490 1491 1491 1491 1491 1490 1489 1487 1486 1484 1482 1480 1478 1475 1472 1469 1466 1463 1460 1457 1453 1450 1446
1436 1442 1447 1453 1457 1462 1466 1469 1473 1476 1478 1480 1482 1483 1485 1486 1487 1487 1487 1487 1486 1485 1484 1482 1480 1478 1476 1474 1471 1468 1466 1463 1460 1457 1453 1450 1446 1442
1431 1436 1442 1447 1452 1456 1461 1465 1468 1472 1474 1476 1478 1479 1481 1482 1483 1483 1484 1483 1482 1481 1480 1478 1477 1475 1472 1470 1467 1465 1462 1459 1456 1453 1450 1446 1443 1439
1426 1432 1437 1442 1447 1451 1456 1460 1464 1467 1470 1472 1474 1475 1477 1478 1479 1479 1479 1479 1479 1478 1476 1475 1473 1471 1469 1466 1464 1461 1459 1456 1453 1450 1447 1443 1439 1436
1421 1427 1432 1438 1443 1447 1452 1456 1459 1462 1465 1467 1469 1471 1472 1473 1474 1475 1475 1475 1475 1474 1473 1472 1470 1468 1466 1463 1461 1458 1456 1453 1450 1447 1443 1440 1436 1432
1416 1422 1428 1433 1438 1443 1448 1451 1455 1458 1460 1463 1465 1466 1468 1469 1470 1471 1471 1471 1471 1471 1469 1468 1467 1465 1462 1460 1458 1455 1453 1450 1446 1443 1440 1437 1433 1429
1411 1417 1422 1428 1433 1438 1443 1447 1450 1454 1457 1459 1461 1463 1464 1465 1466 1467 1468 1468 1467 1467 1466 1464 1463 1461 1459 1457 1455 1452 1450 1446 1443 1440 1437 1433 1430 1426
1406 1412 1417 1423 1428 1433 1438 1442 1445 1449 1452 1455 1458 1459 1461 1462 1463 1464 1465 1465 1464 1463 1462 1461 1459 1458 1456 1454 1452 1449 1446 1443 1440 1437 1433 1430 1427 1423
1402 1407 1413 1418 1423 1428 1433 1437 1441 1444 1448 1451 1454 1456 1458 1459 1460 1461 1461 1461 1460 1460 1459 1458 1456 1454 1453 1451 1449 1446 1443 1440 1437 1434 1430 1427 1424 1420
1397 1403 1408 1413 1419 1423 1428 1432 1436 1439 1443 1446 1449 1452 1454 1455 1456 1457 1458 1458 1457 1457 1456 1455 1453 1452 1449 1448 1446 1444 1441 1437 1434 1431 1428 1424 1420 1417
1391 1397 1403 1409 1414 1419 1424 1428 1432 1436 1439 1443 1445 1448 1450 1452 1453 1454 1455 1455 1455 1454 1454 1452 1451 1449 1448 1445 1442 1441 1438 1435 1431 1428 1425 1421 1418 1414
1387 1393 1399 1405 1410 1415 1420 1424 1429 1432 1436 1439 1441 1444 1446 1448 1449 1451 1452 1452 1452 1452 1451 1450 1448 1447 1445 1442 1439 1437 1435 1432 1429 1425 1422 1419 1415 1412
1384 1390 1395 1401 1406 1411 1416 1421 1425 1428 1431 1434 1437 1440 1443 1445 1446 1448 1449 1449 1449 1449 1448 1447 1446 1444 1442 1440 1437 1434 1432 1429 1427 1423 1419 1416 1412 1408
1381 1387 1392 1397 1403 1408 1412 1417 1421 1425 1428 1431 1434 1437 1439 1441 1443 1445 1446 1446 1447 1446 1446 1445 1443 1442 1439 1437 1435 1432 1430 1427 1424 1421 1417 1414 1410 1407
1376 1382 1387 1393 1398 1403 1408 1413 1417 1421 1425 1428 1431 1434 1436 1438 1440 1442 1443 1444 1444 1443 1443 1442 1441 1439 1437 1435 1433 1431 1428 1425 1422 1419 1415 1411 1408 1405
1373 1378 1383 1389 1394 1399 1404 1409 1413 1418 1422 1425 1428 1431 1433 1436 1437 1439 1440 1441 1441 1441 1440 1439 1437 1436 1435 1432 1432 1428 1426 1423 1420 1417 1413 1409 1406 1403
1370 1375 1380 1385 1391 1396 1400 1405 1410 1414 1418 1422 1425 1428 1431 1433 1435 1436 1437 1438 1438 1438 1437 1437 1435 1433 1432 1430 1429 1428 1424 1421 1417 1414 1411 1407 1404 1401
1367 1372 1377 1382 1387 1392 1397 1402 1407 1411 1415 1419 1422 1425 1428 1430 1432 1433 1435 1435 1436 1436 1435 1435 1434 1433 1431 1430 1427 1425 1423 1419 1416 1412 1409 1406 1403 1400
1364 1369 1374 1379 1384 1389 1394 1399 1404 1408 1412 1416 1419 1422 1425 1427 1429 1431 1432 1433 1434 1434 1433 1433 1432 1432 1430 1429 1426 1423 1421 1418 1415 1411 1407 1404 1400 1398
1361 1367 1372 1377 1382 1387 1391 1396 1401 1405 1409 1413 1416 1419 1422 1424 1426 1428 1430 1431 1431 1432 1432 1432 1431 1430 1429 1427 1424 1422 1419 1417 1414 1411 1407 1404 1401 1397
1359 1364 1369 1374 1379 1384 1389 1393 1398 1402 1406 1410 1413 1416 1419 1422 1424 1426 1428 1429 1430 1430 1430 1430 1429 1428 1427 1426 1423 1421 1418 1416 1413 1410 1408 1404 1402 1399